Weather History for KCDR - November, 2012

Change the Weather History Date:

Saturday, November 17, 2012

  Actual Average Record
Temperature  
Mean Temperature 46 °F 33 °F  
Max Temperature 63 °F 48 °F 72 °F (1953)
Min Temperature 29 °F 19 °F -7 °F (1959)
Degree Days  
Heating Degree Days 19 32  
Month to date heating degree days 438 472  
Since 1 July heating degree days 1109 1225  
Cooling Degree Days 0 0  
Month to date cooling degree days 0 0  
Year to date cooling degree days 1167 712  
Moisture  
Dew Point 30 °F    
Average Humidity 55    
Maximum Humidity 85    
Minimum Humidity 25    
Precipitation  
Precipitation 0.00 in 0.02 in 0.52 in (1921)
Month to date precipitation 0.14 0.41  
Year to date precipitation 7.40 17.32  
Sea Level Pressure  
Sea Level Pressure 30.04 in    
Wind  
Wind Speed 9 mph (WSW)    
Max Wind Speed 25 mph    
Max Gust Speed 31 mph    
Visibility 10 miles    
Events      
T = Trace of Precipitation, MM = Missing Value Source: NWS Daily Summary

Daily Weather History Graph

Daily Weather History Graph

Search for Another Location

Airport or City:

Trip Planner

Search our weather history database for the weather conditions in past years. The results will help you decide how hot, cold, wet, or windy it might be!

Date:

Astronomy

Nov. 17, 2012 Rise Set
Actual Time 6:47 AM MST 4:26 PM MST
Civil Twilight 6:16 AM MST 4:57 PM MST
Nautical Twilight 5:42 AM MST 5:32 PM MST
Astronomical Twilight 5:08 AM MST 6:05 PM MST
Moon 10:33 AM MST (11/17) 8:40 PM MST (11/17)
Length of Visible Light 10h 40m
Length of Day
9h 39m
Waxing Crescent, 21% of the Moon is Illuminated
Nov 17
Waxing Crescent
Nov 20
First Quarter
Nov 28
Full
Dec 6
Last Quarter
Dec 13
New

Hourly Weather History & Observations

Time (MST) Temp. Windchill Dew Point Humidity Pressure Visibility Wind Dir Wind Speed Gust Speed Precip Events Conditions
12:53 AM 45.0 °F 40.6 °F 30.0 °F 56% 29.99 in 10.0 mi SW 8.1 mph - N/A   Overcast
1:53 AM 46.9 °F - 30.0 °F 52% 29.98 in 10.0 mi SSW 8.1 mph - N/A   Overcast
2:53 AM 44.1 °F 40.1 °F 30.9 °F 60% 29.99 in 10.0 mi WSW 6.9 mph - N/A   Overcast
3:53 AM 42.1 °F 37.1 °F 30.0 °F 62% 30.01 in 10.0 mi SW 8.1 mph - N/A   Clear
4:53 AM 35.1 °F 28.6 °F 28.0 °F 76% 30.04 in 10.0 mi WSW 8.1 mph - N/A   Clear
5:53 AM 36.0 °F 30.3 °F 30.0 °F 79% 30.05 in 10.0 mi West 6.9 mph - N/A   Clear
6:53 AM 30.0 °F 24.1 °F 26.1 °F 85% 30.11 in 10.0 mi NNW 5.8 mph - N/A   Clear
7:53 AM 41.0 °F 35.8 °F 32.0 °F 70% 30.09 in 10.0 mi SW 8.1 mph - N/A   Clear
8:53 AM 51.1 °F - 32.0 °F 48% 30.09 in 10.0 mi WSW 12.7 mph 19.6 mph N/A   Clear
9:53 AM 54.0 °F - 30.9 °F 41% 30.08 in 10.0 mi WNW 23.0 mph 31.1 mph N/A   Clear
10:53 AM 57.0 °F - 30.0 °F 36% 30.07 in 10.0 mi West 16.1 mph 23.0 mph N/A   Clear
11:53 AM 60.1 °F - 28.0 °F 30% 30.02 in 10.0 mi WNW 20.7 mph 27.6 mph N/A   Clear
12:53 PM 62.1 °F - 27.0 °F 26% 30.01 in 10.0 mi WNW 17.3 mph - N/A   Clear
1:53 PM 63.0 °F - 26.1 °F 25% 29.99 in 10.0 mi West 15.0 mph - N/A   Clear
2:53 PM 62.1 °F - 27.0 °F 26% 30.00 in 10.0 mi WNW 11.5 mph - N/A   Clear
3:53 PM 60.1 °F - 30.0 °F 32% 30.01 in 10.0 mi NW 5.8 mph - N/A   Clear
4:53 PM 50.0 °F - 30.9 °F 48% 30.05 in 10.0 mi East 3.5 mph - N/A   Clear
5:53 PM 48.9 °F - 30.9 °F 50% 30.05 in 10.0 mi SE 5.8 mph - N/A   Clear
6:53 PM 45.0 °F - 30.9 °F 58% 30.07 in 10.0 mi Calm Calm - N/A   Partly Cloudy
7:53 PM 44.1 °F - 32.0 °F 63% 30.05 in 10.0 mi Calm Calm - N/A   Clear
8:53 PM 36.0 °F 31.1 °F 28.9 °F 76% 30.04 in 10.0 mi SSE 5.8 mph - N/A   Scattered Clouds
9:53 PM 35.1 °F - 28.9 °F 78% 30.03 in 10.0 mi Calm Calm - N/A   Mostly Cloudy
10:53 PM 36.0 °F 31.1 °F 30.0 °F 79% 30.02 in 10.0 mi West 5.8 mph - N/A   Mostly Cloudy
11:53 PM 37.9 °F 33.5 °F 30.9 °F 76% 30.00 in 10.0 mi WSW 5.8 mph - N/A   Mostly Cloudy